Regional Weather Roundup
Issued by NWS

Home | Current Version | Previous Version | Text Only | Print | Product List | Glossary On
Versions: 1 2 3 4 5 6 7 8 9 10 11 12 13 14 15 16 17 18 19 20 21 22 23 24 25 26 27 28 29 30 31 32 33 34 35 36 37 38 39 40 41 42 43 44 45 46 47 48 49 50
000
ASUS43 KDMX 310307
RWRIA

WEATHER ROUNDUP FOR IOWA
NATIONAL WEATHER SERVICE DES MOINES IA
1000 PM CDT SAT AUG 30 2014

NOTE: "FAIR" INDICATES FEW OR NO CLOUDS BELOW 12,000 FEET WITH NO
SIGNIFICANT WEATHER AND/OR OBSTRUCTIONS TO VISIBILITY.

* - THESE STATIONS ARE NOT NWS STATIONS...THUS NOT UNDER NWS
QUALITY CONTROL.  THEY ALSO DO NOT REPORT WEATHER SUCH
AS PRECIPITATION OR FOG.

IAZ001>003-012>014-020>022-031>034-043>046-310400-
   NORTHWEST IOWA

CITY           SKY/WX    TMP DP  RH WIND       PRES   REMARKS
CARROLL *      LGT RAIN  61  61 100 CALM      29.90R
CHEROKEE *     CLEAR     63  63 100 CALM      29.88S
DENISON *        N/A     64  64 100 E3        29.87S
LE MARS *        N/A     64  61  88 SE6       29.86S
ORANGE CITY *  CLEAR     66  61  82 S3        29.87S
SHELDON *      CLEAR     63  61  94 S6        29.86S
SIOUX CITY     CLEAR     66  62  87 E7        29.85S
SPENCER        CLEAR     63  60  90 S5        29.88S
STORM LAKE *   CLEAR     63  63 100 S7        29.89S
$$

IAZ055>058-069>071-079>083-090>094-310400-
   SOUTHWEST IOWA

CITY           SKY/WX    TMP DP  RH WIND       PRES   REMARKS
ATLANTIC *     CLEAR     64  64 100 CALM      29.89S
AUDUBON *      CLEAR     64  63  94 CALM      29.91S
CLARINDA *     CLEAR     66  66 100 CALM      29.90F
COUNCIL BLFS * CLEAR     70  68  94 SE6       29.87S
CRESTON *      CLEAR     66  66 100 SE5       29.91F
HARLAN  *      CLEAR     64  64 100 CALM      29.92S
LAMONI         CLEAR     73  68  84 S5        29.91S
RED OAK *      CLEAR     68  66  94 CALM      29.89S
SHENANDOAH *   CLEAR     68  66  94 CALM      29.89S
$$

IAZ047>049-059>061-072>074-084-310400-
   CENTRAL IOWA

CITY           SKY/WX    TMP DP  RH WIND       PRES   REMARKS
AMES           CLEAR     66  64  93 SW7       29.90R
ANKENY *       CLEAR     64  63  94 CALM      29.90R
CHARITON *     CLEAR     72  68  88 SW3       29.91R
DES MOINES     CLEAR     72  66  81 SE3       29.89R
GRINNELL*      PTCLDY    70  66  88 CALM      29.91S
KNOXVILLE *    CLEAR     73  68  83 CALM      29.89S
MARSHALLTOWN   CLEAR     67  66  97 S5        29.89S
PELLA *        CLEAR     70  68  94 CALM      29.91R
PERRY *          N/A     64  63  94 S3        29.90S
$$

IAZ004>006-015-016-023>025-035-036-310400-
   NORTH CENTRAL IOWA

CITY           SKY/WX    TMP DP  RH WIND       PRES   REMARKS
ALGONA *       CLEAR     66  64  94 SW7       29.89S
CLARION *      CLEAR     64  64 100 CALM      29.90R
ESTHERVILLE    CLEAR     63  62  97 S5        29.88R
FORT DODGE *   CLEAR     63  59  88 CALM      29.90S
MASON CITY     CLEAR     64  63  96 CALM      29.91R
FOREST CITY *  PTCLDY    63  63 100 CALM      29.89S
IOWA FALLS *     N/A     64  63  94 S6        29.91S
$$

IAZ007>011-017>019-026>030-037>042-050>054-066-310400-
   NORTHEAST IOWA

CITY           SKY/WX    TMP DP  RH WIND       PRES   REMARKS
CEDAR RAPIDS   CLEAR     69  68  96 S3        29.90R
CHARLES CITY * CLEAR     66  64  94 CALM      29.90S
CLINTON *      CLEAR     66  64  94 SW3       29.92S
DECORAH *      LGT RAIN  70  68  94 CALM      29.89R
DUBUQUE        CLEAR     65  64  97 SW3       29.91R
MONTICELLO *   CLEAR     68  66  94 CALM      29.90R
OELWEIN *      CLEAR     66  64  94 SW5       29.91R
WATERLOO       CLEAR     66  63  90 CALM      29.89R
$$

IAZ064-065-067-068-078-310400-
   EAST CENTRAL IOWA

CITY           SKY/WX    TMP DP  RH WIND       PRES   REMARKS
DAVENPORT      CLEAR     69  65  86 SW3       29.91R
IOWA CITY      CLEAR     68  66  93 CALM      29.90S
MT. PLEASANT * CLEAR     68  66  94 SE3       29.91S
MUSCATINE *    CLEAR     70  68  94 CALM      29.90S
QUAD CITIES    CLEAR     71  68  90 NW3       29.90R
$$

IAZ062-063-075>077-085>089-095>099-310400-
   SOUTHEAST IOWA

CITY           SKY/WX    TMP DP  RH WIND       PRES   REMARKS
BURLINGTON     LGT RAIN  71  69  93 CALM      29.90S
FAIRFIELD *    CLEAR     68  66  94 CALM      29.90F
FORT MADISON * CLEAR     70  70 100 CALM      29.92R
KEOKUK *       CLEAR     72  70  94 CALM      29.90S
OSKALOOSA *      N/A     68  66  94 CALM      29.90S
CENTERVILLE *  CLEAR     66  66 100 CALM      29.92S
OTTUMWA        CLEAR     68  66  93 SE3       29.90R
WASHINGTON *   CLEAR     68  68 100 CALM      29.90S
$$

ABBREVIATIONS USED IN REMARKS
   TC - TEMPERATURES IN CELSIUS
  WCI - WIND CHILL INDEX
   HX - HEAT INDEX
  VSB - VISIBILITY
$$




USA.gov is the U.S. government's official web portal to all federal, state and local government web resources and services.